Regional Weather Roundup
Issued by NWS Sioux Falls, SD

Home | Current Version | Previous Version | Text Only | Print | Product List | Glossary Off
Versions: 1 2 3 4 5 6 7 8 9 10 11 12 13 14 15 16 17 18 19 20 21 22 23 24 25 26 27 28 29 30 31 32 33 34 35 36 37 38 39 40 41 42 43 44 45 46 47 48 49 50

000
ASUS43 KFSD 220602
RWRFSD

WEATHER ROUNDUP FOR SE SOUTH DAKOTA/SW MINNESOTA/NW IOWA
NATIONAL WEATHER SERVICE SIOUX FALLS SD
100 AM CDT FRI AUG 22 2014

NOTE: "FAIR" INDICATES FEW OR NO CLOUDS BELOW 12,000 FEET WITH NO
SIGNIFICANT WEATHER AND OR OBSTRUCTIONS TO VISIBILITY.


SDZ038>040-050-052>070-220700-
SOUTHEAST SOUTH DAKOTA

CITY           SKY/WX    TMP DP  RH WIND       PRES   REMARKS
CHAMBERLAIN    CLEAR     68  64  87 CALM      29.93S
6HR MIN TEMP:  67; 6HR MAX TEMP:  84;

HURON          CLEAR     65  63  93 CALM      29.91S
6HR MIN TEMP:  65; 6HR MAX TEMP:  83;

MADISON        FAIR      66  66 100 CALM      29.92S
MITCHELL       CLEAR     69  66  90 CALM      29.91S
6HR MIN TEMP:  68; 6HR MAX TEMP:  84;

SIOUX FALLS    FAIR      69  67  93 CALM      29.90S
6HR MIN TEMP:  69; 6HR MAX TEMP:  84; 6HR PCP: TRACE;

WINNER         FAIR      68  62  81 SE7       29.95R
YANKTON        FAIR      73  70  88 N3        29.89S
$$

MNZ071-072-080-081-089-090-097-098-220700-
SOUTHWEST MINNESOTA

CITY           SKY/WX    TMP DP  RH WIND       PRES   REMARKS
FAIRMONT       FAIR      70  64  83 MISG      29.88S
JACKSON        FAIR      68  64  88 CALM      29.90F
LUVERNE        FAIR      70  66  88 CALM      29.90F
MARSHALL       FAIR      68  64  88 CALM        N/A
6HR MIN TEMP:  68; 6HR MAX TEMP:  84;

MONTEVIDEO       N/A     70  66  88 CALM      29.88F FOG
PIPESTONE      FAIR      70  66  88 CALM      29.92S
REDWOOD FALLS  FOG       73  73 100 CALM      29.87S VSB 1/2
TRACY          FAIR      72  68  89 W3        29.89F
WINDOM         FAIR      70  66  88 CALM      29.90S
WORTHINGTON    FAIR      68  10  10 N5        29.91S
$$

IAZ001>003-012>014-020>022-031-032-NEZ013-014-SDZ071-220700-
NORTHWEST IOWA

CITY           SKY/WX    TMP DP  RH WIND       PRES   REMARKS
CHEROKEE       FAIR      74  74 100 CALM      29.87S
DENISON        MOCLDY    75  75 100 CALM      29.87R FOG
ESTHERVILLE    FAIR      68  68 100 CALM      29.88F
LE MARS        FAIR      75  73  94 CALM      29.88S
ORANGE CITY    FAIR      77  70  78 N5        29.89S
SHELDON        FAIR      70  70 100 CALM      29.88S
SIOUX CITY     FAIR      77  74  90 CALM      29.86F
6HR MIN TEMP:  77; 6HR MAX TEMP:  90;

SPENCER        FAIR      71  68  90 NE6       29.88F
6HR MIN TEMP:  71; 6HR MAX TEMP:  85;

STORM LAKE     FAIR      73  73 100 CALM      29.88F FOG
$$

ABBREVIATIONS USED IN REMARKS
   TC - TEMPERATURE IN CELSIUS
  WCI - WIND CHILL INDEX
   HX - HEAT INDEX
  VSB - VISIBILITY




USA.gov is the U.S. government's official web portal to all federal, state and local government web resources and services.